Regional Weather Roundup
Issued by NWS Spokane, WA

Home | Current Version | Previous Version | Text Only | Print | Product List | Glossary On
Versions: 1 2 3 4 5 6 7 8 9 10 11 12 13 14 15 16 17 18 19 20 21 22 23 24 25 26 27 28 29 30 31 32 33 34 35 36 37 38 39 40 41 42 43 44 45 46 47 48 49 50
000
NZUS01 KOTX 041405
RWROTX
EASTERN WASHINGTON/NORTHERN IDAHO ROUNDUP
NATIONAL WEATHER SERVICE, SPOKANE WA
700 AM PDT SAT JUL 04 2015

Note: "fair" indicated few or no clouds below 12,000 feet with no
significant weather and/or obstructions to visibility.

...NORTHEAST WASHINGTON AND NORTHERN IDAHO PANHANDLE...

CITY           SKY/WX    TMP DP  RH WIND       PRES   REMARKS
SPOKANE INTL   MOSUNNY   69  44  40 S9        29.84R
SPOKANE DOWNTO SUNNY     75  47  36 CALM      29.83R
COEUR D ALENE  SUNNY     72  54  53 S10       29.83R
DEER PARK      SUNNY     69  50  50 E3        29.84R
SANDPOINT      SUNNY     64  54  68 CALM      29.83S
BONNERS FERRY  FAIR      66  54  63 CALM      29.84R

...SOUTHEAST WASHINGTON AND SOUTHERN IDAHO PANHANDLE...

CITY           SKY/WX    TMP DP  RH WIND       PRES   REMARKS
WALLA WALLA    MOSUNNY   79  46  31 S7        29.81S
PULLMAN/MOSCOW SUNNY     69  51  52 CALM      29.89R
LEWISTON       MOSUNNY   74  51  44 E7        29.82R
LOWELL           N/A     62  53  72 CALM      29.90R

...COLUMBIA BASIN...

CITY           SKY/WX    TMP DP  RH WIND       PRES   REMARKS
EPHRATA        SUNNY     84  47  27 N15       29.76R
MOSES LAKE     SUNNY     79  54  41 N5        29.77R
TRI CITIES     MOSUNNY   76  57  51 CALM      29.76R
HERMISTON      MOSUNNY   78  48  34 CALM      29.78R
PENDLETON      SUNNY     71  45  39 S7        29.84R

...EAST SLOPES CASCADES...

CITY           SKY/WX    TMP DP  RH WIND       PRES   REMARKS
THE DALLES     MOSUNNY   73  53  49 NW3       29.79R
YAKIMA         SUNNY     71  49  45 W8        29.80R
ELLENSBURG     SUNNY     77  46  33 NW16G22   29.83R
WENATCHEE      SUNNY     81  44  27 N12       29.80S
OMAK           SUNNY     79  47  32 N9        29.81R

...SOUTHERN BRITISH COLUMBIA...

CITY           SKY/WX    TMP DP  RH WIND       PRES   REMARKS

...WESTERN MONTANA...

CITY           SKY/WX    TMP DP  RH WIND       PRES   REMARKS
MISSOULA       SUNNY     64  48  56 CALM      29.93R

...NEIGHBORING CITIES...

CITY           SKY/WX    TMP DP  RH WIND       PRES   REMARKS
SEATTLE        MOSUNNY   61  54  77 SW5       29.90S



USA.gov is the U.S. government's official web portal to all federal, state and local government web resources and services.